KB9GXK Weather Reports


Display with metric or nautical units.
time (UTC)temp
F
wind
direction
speed
MPH
gust
MPH
rain 1hr
in
rain 24hr
in
rain mn
in
humidity
%
barometer
mb
20260906123701 66 53 0.0 0.0 0.00 0.00 0.00 96 1021.8
20260906123156 66 88 0.0 0.0 0.00 0.00 0.00 96 1021.6
20260906122655 66 108 0.0 0.0 0.00 0.00 0.00 96 1021.6
20260906122151 66 78 0.0 0.0 0.00 0.00 0.00 96 1021.5
20260906121648 65 80 0.0 0.0 0.00 0.00 0.00 96 1021.5
20260906121144 65 39 0.0 0.0 0.00 0.00 0.00 96 1021.5
20260906120639 65 38 0.0 0.0 0.00 0.00 0.00 96 1021.4
20260906120136 64 40 0.0 0.0 0.00 0.00 0.00 96 1021.3
20260906115636 64 22 0.0 0.0 0.00 0.00 0.00 96 1021.4
20260906115126 64 36 0.0 0.0 0.00 0.00 0.00 96 1021.3
20260906114619 64 37 0.0 0.0 0.00 0.00 0.00 96 1021.2
20260906114114 64 31 0.0 0.0 0.00 0.00 0.00 96 1021.2
20260906113614 64 52 0.0 0.0 0.00 0.00 0.00 96 1021.0
20260906113109 64 44 0.0 0.0 0.00 0.00 0.00 96 1020.9
20260906112609 64 50 0.0 0.0 0.00 0.00 0.00 96 1021.0
20260906112106 64 40 0.0 0.0 0.00 0.00 0.00 96 1020.9
20260906111605 64 38 0.0 0.0 0.00 0.00 0.00 96 1021.2
20260906111101 64 30 0.0 0.0 0.00 0.00 0.00 96 1020.8
20260906110600 64 25 0.0 0.0 0.00 0.00 0.00 96 1020.8
20260906110059 64 25 0.0 0.0 0.00 0.00 0.00 96 1020.8
20260906105554 64 25 0.0 0.0 0.00 0.00 0.00 96 1020.5
20260906105051 64 25 0.0 0.0 0.00 0.00 0.00 96 1020.4
20260906104549 64 25 0.0 0.0 0.00 0.00 0.00 96 1020.6
20260906104044 64 25 0.0 0.0 0.00 0.00 0.00 96 1020.8
20260906103542 63 25 0.0 0.0 0.00 0.00 0.00 96 1020.6
20260906103037 63 25 0.0 0.0 0.00 0.00 0.00 96 1020.5
20260906102532 64 25 0.0 0.0 0.00 0.00 0.00 96 1020.6
20260906102027 64 25 0.0 0.0 0.00 0.00 0.00 96 1020.4
20260906101526 64 25 0.0 0.0 0.00 0.00 0.00 96 1020.5
20260906101021 65 54 0.0 0.0 0.00 0.00 0.00 96 1020.4
20260906100517 65 58 0.0 0.0 0.00 0.00 0.00 96 1020.2
20260906100012 64 52 0.0 0.0 0.00 0.00 0.00 96 1020.2
20260906095507 65 18 0.0 0.0 0.00 0.00 0.00 96 1020.1
20260906095002 65 39 0.0 0.0 0.00 0.00 0.00 96 1020.1
20260906094501 65 24 0.0 0.0 0.00 0.00 0.00 96 1020.2
20260906093957 64 19 0.0 0.0 0.00 0.00 0.00 96 1020.1
20260906093453 65 41 0.0 0.0 0.00 0.00 0.00 96 1020.3
20260906092953 65 22 0.0 1.0 0.00 0.00 0.00 96 1020.3
20260906092448 65 14 0.0 0.0 0.00 0.00 0.00 96 1020.3
20260906091943 64 263 0.0 0.0 0.00 0.00 0.00 96 1020.4
20260906091439 64 318 0.0 0.0 0.00 0.00 0.00 96 1020.3
20260906090935 64 248 0.0 0.0 0.00 0.00 0.00 96 1020.2
20260906090430 64 332 0.0 0.0 0.00 0.00 0.00 96 1020.2
20260906085924 64 43 0.0 0.0 0.00 0.00 0.00 96 1020.2
20260906085424 65 37 0.0 0.0 0.00 0.00 0.00 96 1020.2
20260906084923 65 47 0.0 0.0 0.00 0.00 0.00 96 1020.3
20260906084418 65 301 0.0 0.0 0.00 0.00 0.00 96 1020.3
20260906083917 65 329 0.0 0.0 0.00 0.00 0.00 96 1020.2
20260906083413 65 331 0.0 0.0 0.00 0.00 0.00 96 1020.1
20260906082912 64 305 0.0 0.0 0.00 0.00 0.00 96 1020.1
20260906082407 64 289 0.0 0.0 0.00 0.00 0.00 96 1020.2
20260906081903 65 274 0.0 0.0 0.00 0.00 0.00 96 1020.2
20260906081358 64 6 0.0 0.0 0.00 0.00 0.00 96 1020.1
20260906080854 64 16 0.0 0.0 0.00 0.00 0.00 96 1020.0
20260906080351 64 16 0.0 0.0 0.00 0.00 0.00 95 1020.0
20260906075850 64 288 0.0 0.0 0.00 0.00 0.00 95 1019.8
20260906075345 64 288 0.0 0.0 0.00 0.00 0.00 95 1019.6
20260906074840 64 282 0.0 0.0 0.00 0.00 0.00 95 1019.8
20260906074340 64 282 0.0 0.0 0.00 0.00 0.00 95 1019.9
20260906073838 64 257 0.0 0.0 0.00 0.00 0.00 95 1019.9
20260906073333 64 282 0.0 0.0 0.00 0.00 0.00 95 1019.9
20260906072830 64 226 0.0 0.0 0.00 0.00 0.00 95 1019.8
20260906072325 64 226 0.0 0.0 0.00 0.00 0.00 95 1020.0
20260906071821 64 242 0.0 0.0 0.00 0.00 0.00 95 1019.6
20260906071315 64 242 0.0 0.0 0.00 0.00 0.00 95 1019.9
20260906070813 64 250 0.0 0.0 0.00 0.00 0.00 95 1019.8
20260906070308 64 328 0.0 0.0 0.00 0.00 0.00 95 1019.8
20260906065808 64 328 0.0 0.0 0.00 0.00 0.00 95 1019.9
20260906065305 64 328 0.0 0.0 0.00 0.00 0.00 95 1019.9
20260906064759 65 328 0.0 0.0 0.00 0.00 0.00 95 1019.9
20260906064255 64 328 0.0 0.0 0.00 0.00 0.00 95 1020.0
20260906063755 65 328 0.0 0.0 0.00 0.00 0.00 95 1020.2
20260906063251 64 328 0.0 0.0 0.00 0.00 0.00 95 1020.1
20260906062745 64 328 0.0 0.0 0.00 0.00 0.00 95 1019.9
20260906062244 65 328 0.0 0.0 0.00 0.00 0.00 95 1019.8
20260906061740 65 328 0.0 0.0 0.00 0.00 0.00 95 1019.9
20260906061237 65 328 0.0 0.0 0.00 0.00 0.00 95 1020.1
20260906060732 65 328 0.0 0.0 0.00 0.00 0.00 94 1020.1
20260906060229 65 327 0.0 0.0 0.00 0.00 0.00 94 1020.1
20260906055725 65 327 0.0 0.0 0.00 0.00 0.00 94 1020.0
20260906055220 65 328 0.0 0.0 0.00 0.00 0.00 94 1019.9
20260906054715 65 328 0.0 0.0 0.00 0.00 0.00 94 1019.9
20260906054210 65 328 0.0 0.0 0.00 0.00 0.00 94 1019.9
20260906053707 65 329 0.0 0.0 0.00 0.00 0.00 94 1019.9
20260906053201 65 330 0.0 0.0 0.00 0.00 0.00 94 1019.9
20260906052656 66 330 0.0 0.0 0.00 0.00 0.00 94 1019.7
20260906052153 66 330 0.0 0.0 0.00 0.00 0.00 94 1019.6
20260906051650 66 330 0.0 0.0 0.00 0.00 0.00 94 1019.8
20260906051149 66 14 0.0 0.0 0.00 0.00 0.00 94 1019.8
20260906050644 66 14 0.0 0.0 0.00 0.00 0.00 94 1019.8
20260906050139 66 14 0.0 0.0 0.00 0.00 0.00 94 1019.6
20260906045638 66 13 0.0 0.0 0.00 0.00 0.00 94 1019.6
20260906045133 67 78 0.0 0.0 0.00 0.00 0.00 94 1019.6
20260906044629 67 54 0.0 0.0 0.00 0.00 0.00 94 1019.6
20260906044124 67 95 0.0 0.0 0.00 0.00 0.00 94 1019.4
20260906043620 67 94 0.0 0.0 0.00 0.00 0.00 94 1019.4
20260906043116 67 30 0.0 0.0 0.00 0.00 0.00 94 1019.2
20260906042615 68 26 0.0 0.0 0.00 0.00 0.00 94 1019.1
20260906042109 68 58 0.0 0.0 0.00 0.00 0.00 94 1019.4
20260906041606 68 154 0.0 1.0 0.00 0.00 0.00 94 1019.3
20260906041100 68 333 0.0 0.0 0.00 0.00 0.00 94 1019.3
20260906040556 68 33 2.0 3.0 0.00 0.00 0.00 94 1019.3
20260906040051 68 33 0.0 0.0 0.00 0.00 0.00 94 1019.1
20260906035547 68 30 1.0 1.0 0.00 0.00 0.00 94 1019.1
20260906035043 68 9 0.0 1.0 0.00 0.00 0.00 94 1019.2
20260906034542 68 31 0.0 1.0 0.00 0.00 0.00 94 1019.1
20260906034037 68 28 0.0 0.0 0.00 0.00 0.00 93 1019.3
20260906033532 68 331 0.0 0.0 0.00 0.00 0.00 93 1018.9
20260906033028 68 38 0.0 0.0 0.00 0.00 0.00 93 1019.1
20260906032524 68 49 0.0 0.0 0.00 0.00 0.00 93 1019.1
20260906032018 68 53 0.0 1.0 0.00 0.00 0.00 93 1019.0
20260906031514 68 350 0.0 0.0 0.00 0.00 0.00 93 1019.1
20260906031009 68 16 0.0 0.0 0.00 0.00 0.00 93 1019.1
20260906030503 68 39 0.0 1.0 0.00 0.00 0.00 93 1018.8
20260906025958 68 3 2.0 3.0 0.00 0.00 0.00 93 1018.8
20260906025457 68 23 0.0 1.0 0.00 0.00 0.00 92 1018.9
20260906024955 68 18 1.0 1.0 0.00 0.00 0.00 92 1018.9
20260906024450 68 2 0.0 0.0 0.00 0.00 0.00 92 1019.0
20260906023945 68 6 0.0 0.0 0.00 0.00 0.00 92 1019.2
20260906023441 68 86 0.0 1.0 0.00 0.00 0.00 92 1019.1
20260906022936 68 49 0.0 0.0 0.00 0.00 0.00 92 1018.9
20260906022432 68 85 0.0 1.0 0.00 0.00 0.00 91 1019.1
20260906021927 68 351 0.0 0.0 0.00 0.00 0.00 91 1018.9
20260906021426 68 10 1.0 1.0 0.00 0.00 0.00 91 1019.2
20260906020921 68 302 0.0 0.0 0.00 0.00 0.00 91 1019.2
20260906020415 68 47 0.0 0.0 0.00 0.00 0.00 91 1019.2
20260906015909 68 7 0.0 1.0 0.00 0.00 0.00 90 1019.1
20260906015409 68 4 2.0 3.0 0.00 0.00 0.00 90 1019.1
20260906014908 68 14 2.0 2.0 0.00 0.00 0.00 90 1019.0
20260906014403 69 202 0.0 1.0 0.00 0.00 0.00 90 1019.0
20260906013859 69 39 1.0 1.0 0.00 0.00 0.00 90 1019.2
20260906013354 69 90 0.0 0.0 0.00 0.00 0.00 90 1019.0
20260906012850 69 40 2.0 2.0 0.00 0.00 0.00 90 1019.1
20260906012345 69 340 1.0 1.0 0.00 0.00 0.00 89 1019.1
20260906011844 69 24 1.0 2.0 0.00 0.00 0.00 89 1018.8
20260906011339 70 26 1.0 2.0 0.00 0.00 0.00 89 1019.0
20260906010835 70 284 0.0 0.0 0.00 0.00 0.00 89 1019.1
20260906010331 70 354 1.0 2.0 0.00 0.00 0.00 89 1019.1
20260906005827 70 14 0.0 1.0 0.00 0.00 0.00 89 1019.0
20260906005326 70 8 1.0 2.0 0.00 0.00 0.00 89 1018.8
20260906004825 70 318 0.0 0.0 0.00 0.00 0.00 89 1018.8
20260906004324 70 31 2.0 2.0 0.00 0.00 0.00 89 1018.7
20260906003820 70 24 1.0 1.0 0.00 0.00 0.00 89 1018.9
20260906003315 70 28 2.0 2.0 0.00 0.00 0.00 89 1018.8
20260906002811 70 26 0.0 0.0 0.00 0.00 0.00 90 1018.7
20260906002310 70 356 0.0 0.0 0.00 0.00 0.00 90 1018.8
20260906001806 70 342 1.0 2.0 0.00 0.00 0.00 90 1018.8
20260906001301 70 24 1.0 1.0 0.00 0.00 0.00 90 1018.6
20260906000755 70 343 0.0 0.0 0.00 0.00 0.00 90 1018.6
20260906000250 70 46 0.0 1.0 0.00 0.00 0.00 90 1018.6
20260905235745 70 71 1.0 1.0 0.00 0.00 0.00 90 1018.8
20260905235244 70 335 1.0 1.0 0.00 0.00 0.00 90 1018.8
20260905234740 70 17 0.0 1.0 0.00 0.00 0.00 90 1018.8
20260905234235 70 120 0.0 0.0 0.00 0.00 0.00 90 1018.7
20260905233731 70 28 1.0 1.0 0.00 0.00 0.00 90 1018.9
20260905233230 70 354 1.0 1.0 0.00 0.00 0.00 90 1018.9
20260905232730 71 2 3.0 4.0 0.00 0.00 0.00 89 1018.8
20260905232226 71 346 1.0 2.0 0.00 0.00 0.00 89 1018.7
20260905231721 71 296 1.0 1.0 0.00 0.00 0.00 88 1018.7
20260905231217 71 77 0.0 1.0 0.00 0.00 0.00 88 1018.6
20260905230713 71 57 1.0 1.0 0.00 0.00 0.00 88 1018.7
20260905230210 72 57 0.0 1.0 0.00 0.00 0.00 87 1018.6
20260905225710 72 2 2.0 3.0 0.00 0.00 0.00 87 1018.5
20260905225206 72 45 2.0 3.0 0.00 0.00 0.00 86 1018.5
20260905224705 72 319 1.0 1.0 0.00 0.00 0.00 86 1018.5
20260905224200 72 8 1.0 1.0 0.00 0.00 0.00 86 1018.5
20260905223656 72 14 1.0 1.0 0.00 0.00 0.00 86 1018.5
20260905223153 72 355 1.0 1.0 0.00 0.00 0.00 86 1018.5
20260905222648 72 6 2.0 3.0 0.00 0.00 0.00 85 1018.4
20260905222148 73 114 2.0 2.0 0.00 0.00 0.00 85 1018.5
20260905221644 72 343 0.0 0.0 0.00 0.00 0.00 85 1018.5
20260905221141 73 97 1.0 2.0 0.00 0.00 0.00 85 1018.5
20260905220636 73 18 2.0 2.0 0.00 0.00 0.00 85 1018.5
20260905220132 73 14 2.0 2.0 0.00 0.00 0.00 84 1018.3
20260905215631 73 61 1.0 1.0 0.00 0.00 0.00 85 1018.4
20260905215127 73 35 2.0 3.0 0.00 0.00 0.00 84 1018.3
20260905214623 73 320 2.0 2.0 0.00 0.00 0.00 84 1018.2
20260905214118 74 22 1.0 1.0 0.00 0.00 0.00 84 1018.2
20260905213613 73 7 1.0 2.0 0.00 0.00 0.00 84 1018.1
20260905213108 74 64 3.0 4.0 0.00 0.00 0.00 84 1017.6
20260905212603 75 18 1.0 2.0 0.00 0.00 0.00 82 1017.7
20260905212103 76 6 2.0 3.0 0.00 0.00 0.00 81 1017.5
20260905211558 75 23 0.0 0.0 0.00 0.00 0.00 83 1017.8
20260905211053 75 14 1.0 2.0 0.00 0.00 0.00 82 1017.6
20260905210549 76 24 1.0 1.0 0.00 0.00 0.00 81 1017.7
20260905210044 76 32 4.0 7.0 0.00 0.00 0.00 82 1017.8
20260905205543 77 267 2.0 2.0 0.00 0.00 0.00 82 1017.7
20260905205043 77 90 4.0 8.0 0.00 0.00 0.00 82 1017.7
20260905204538 77 8 4.0 6.0 0.00 0.00 0.00 81 1017.6
20260905204033 77 358 2.0 3.0 0.00 0.00 0.00 81 1017.5
20260905203532 78 355 2.0 3.0 0.00 0.00 0.00 81 1017.5
20260905203028 80 40 1.0 2.0 0.00 0.00 0.00 78 1017.5
20260905202523 78 3 2.0 3.0 0.00 0.00 0.00 80 1017.7
20260905202019 79 341 2.0 3.0 0.00 0.00 0.00 79 1017.7
20260905201514 78 0 2.0 2.0 0.00 0.00 0.00 80 1017.8
20260905201014 78 27 2.0 2.0 0.00 0.00 0.00 80 1017.7
20260905200509 79 21 5.0 7.0 0.00 0.00 0.00 80 1017.8
20260905200009 78 251 2.0 3.0 0.00 0.00 0.00 81 1017.9
20260905195503 78 355 3.0 4.0 0.00 0.00 0.00 81 1017.9
20260905194958 79 14 5.0 6.0 0.00 0.00 0.00 78 1017.8
20260905194457 79 11 1.0 3.0 0.00 0.00 0.00 80 1017.6
20260905193952 78 49 1.0 2.0 0.00 0.00 0.00 81 1017.6
20260905193452 78 21 2.0 2.0 0.00 0.00 0.00 81 1017.8
20260905192947 78 19 2.0 2.0 0.00 0.00 0.00 82 1017.8
20260905192443 78 59 1.0 2.0 0.00 0.00 0.00 81 1017.7
20260905191939 78 52 1.0 2.0 0.00 0.00 0.00 81 1017.8
20260905191438 79 64 3.0 4.0 0.00 0.00 0.00 80 1017.8
20260905190937 79 42 1.0 2.0 0.00 0.00 0.00 80 1017.7
20260905190435 80 123 2.0 2.0 0.00 0.00 0.00 78 1017.8
20260905185934 80 43 1.0 2.0 0.00 0.00 0.00 78 1017.9
20260905185429 80 32 1.0 2.0 0.00 0.00 0.00 77 1017.9
20260905184927 78 199 0.0 1.0 0.00 0.00 0.00 79 1018.0
20260905184422 78 59 0.0 0.0 0.00 0.00 0.00 81 1018.3
20260905183921 78 15 2.0 2.0 0.00 0.00 0.00 80 1018.1
20260905183416 78 41 2.0 2.0 0.00 0.00 0.00 81 1018.2
20260905182911 78 67 1.0 2.0 0.00 0.00 0.00 81 1018.1
20260905182405 77 30 2.0 2.0 0.00 0.00 0.00 82 1018.3
20260905181901 76 52 0.0 1.0 0.00 0.00 0.00 84 1018.2
20260905181400 76 343 1.0 2.0 0.00 0.00 0.00 84 1018.0
20260905180859 76 3 1.0 1.0 0.00 0.00 0.00 84 1018.1
20260905180354 75 50 2.0 3.0 0.00 0.00 0.00 85 1017.9
20260905175849 75 344 2.0 3.0 0.00 0.00 0.00 85 1018.1
20260905175344 75 32 2.0 3.0 0.00 0.00 0.00 85 1018.0
20260905174839 75 0 1.0 1.0 0.00 0.00 0.00 85 1018.0
20260905174335 75 46 0.0 0.0 0.00 0.00 0.00 85 1018.1
20260905173830 75 31 2.0 2.0 0.00 0.00 0.00 85 1017.8
20260905173327 77 18 1.0 1.0 0.00 0.00 0.00 83 1018.2
20260905172826 76 31 0.0 1.0 0.00 0.00 0.00 83 1018.2
20260905172324 76 73 0.0 0.0 0.00 0.00 0.00 84 1018.2
20260905171820 75 20 1.0 1.0 0.00 0.00 0.00 84 1018.1
20260905171317 76 15 2.0 2.0 0.00 0.00 0.00 84 1018.2
20260905170813 76 53 3.0 4.0 0.00 0.00 0.00 84 1018.3
20260905170308 75 353 0.0 0.0 0.00 0.00 0.00 85 1018.1
20260905165807 75 18 0.0 1.0 0.00 0.00 0.00 84 1018.4
20260905165306 76 13 1.0 3.0 0.00 0.00 0.00 83 1018.3
20260905164804 75 10 1.0 1.0 0.00 0.00 0.00 84 1018.3
20260905164304 76 20 2.0 3.0 0.00 0.00 0.00 83 1018.3
20260905163759 76 21 2.0 2.0 0.00 0.00 0.00 82 1018.2
20260905163256 76 6 1.0 2.0 0.00 0.00 0.00 82 1018.1
20260905162751 76 5 0.0 0.0 0.00 0.00 0.00 82 1018.3
20260905162251 76 68 1.0 1.0 0.00 0.00 0.00 82 1018.3
20260905161745 76 22 2.0 2.0 0.00 0.00 0.00 83 1018.1
20260905161244 75 18 2.0 2.0 0.00 0.00 0.00 83 1018.2
20260905160737 75 344 1.0 2.0 0.00 0.00 0.00 84 1018.2
20260905160238 75 59 0.0 0.0 0.00 0.00 0.00 83 1018.3
20260905155738 76 56 2.0 3.0 0.00 0.00 0.00 83 1018.4
20260905155236 75 47 1.0 1.0 0.00 0.00 0.00 84 1018.2
20260905154731 75 50 0.0 0.0 0.00 0.00 0.00 84 1018.1
20260905154227 75 27 1.0 1.0 0.00 0.00 0.00 84 1018.1
20260905153717 75 17 0.0 0.0 0.00 0.00 0.00 85 1018.1
20260905153213 74 20 0.0 0.0 0.00 0.00 0.00 86 1018.1
20260905152713 74 26 0.0 1.0 0.00 0.00 0.00 86 1017.9
20260905152207 74 37 2.0 2.0 0.00 0.00 0.00 86 1017.8
20260905151707 74 11 0.0 1.0 0.00 0.00 0.00 86 1018.0
20260905151202 74 35 1.0 2.0 0.00 0.00 0.00 86 1017.8
20260905150658 74 24 1.0 1.0 0.00 0.00 0.00 87 1017.9
20260905150156 74 49 0.0 0.0 0.00 0.00 0.00 87 1017.9
20260905145654 75 43 3.0 4.0 0.00 0.00 0.00 86 1017.7
20260905145149 75 20 1.0 2.0 0.00 0.00 0.00 86 1017.8
20260905144649 75 42 1.0 2.0 0.00 0.00 0.00 85 1017.7
20260905144143 75 11 1.0 1.0 0.00 0.00 0.00 85 1017.5
20260905143643 75 27 1.0 2.0 0.00 0.00 0.00 86 1017.5
20260905143143 74 31 0.0 0.0 0.00 0.00 0.00 87 1017.4
20260905142641 74 55 0.0 1.0 0.00 0.00 0.00 88 1017.6
20260905142136 74 68 1.0 1.0 0.00 0.00 0.00 89 1017.5
20260905141636 73 24 1.0 1.0 0.00 0.00 0.00 89 1017.4
20260905141133 73 36 0.0 0.0 0.00 0.00 0.00 90 1017.4
20260905140627 73 1 1.0 1.0 0.00 0.00 0.00 90 1017.3
20260905140127 73 5 3.0 6.0 0.00 0.00 0.00 89 1017.3
20260905135617 74 115 1.0 2.0 0.00 0.00 0.00 90 1017.1
20260905135112 73 76 1.0 2.0 0.00 0.00 0.00 90 1017.3
20260905134606 73 11 1.0 1.0 0.00 0.00 0.00 91 1017.2
20260905134105 73 15 2.0 3.0 0.00 0.00 0.00 92 1017.3
20260905133601 73 353 2.0 3.0 0.00 0.00 0.00 93 1017.2
20260905133055 72 20 1.0 1.0 0.00 0.00 0.00 94 1017.5
20260905132555 72 65 1.0 1.0 0.00 0.00 0.00 94 1017.8
20260905132049 72 353 1.0 1.0 0.00 0.00 0.00 95 1017.6
20260905131545 72 54 2.0 2.0 0.00 0.00 0.00 95 1017.4
20260905131040 72 42 0.0 0.0 0.00 0.00 0.00 95 1017.2
20260905130539 72 16 2.0 3.0 0.00 0.00 0.00 95 1016.8
20260905130035 72 21 0.0 1.0 0.00 0.00 0.00 95 1017.2
20260905125534 72 25 2.0 3.0 0.00 0.00 0.00 95 1017.0
20260905125030 72 6 0.0 1.0 0.00 0.00 0.00 95 1017.1
20260905124526 72 32 1.0 2.0 0.00 0.00 0.00 95 1017.1